Tracking 27422 objects as of 29-May-2023
HD Live streaming from Space Station
objects crossing your sky now

FLOCK 4S 9

Track FLOCK 4S 9 now!
10-day predictions
FLOCK 4S 9 is classified as:


NORAD ID: 47478
Int'l Code: 2021-006BT
Perigee: 479.6 km
Apogee: 488.7 km
Inclination: 97.4 °
Period: 94.1 minutes
Semi major axis: 6855 km
RCS: Unknown
Launch date: January 24, 2021
Source: United States (US)
Launch site: ()
Your satellite tracking list
Your tracking list is empty




NASA's NSSDC Master Catalog

Two Line Element Set (TLE):
1 47478U 21006BT  23149.12660884  .00012216  00000-0  42795-3 0  9995
2 47478  97.3873 207.4242 0006685 150.4303 209.7316 15.29602569129792
Source of the keplerian elements: AFSPC